Location: Marcé
(47.5801°N, 0.3280°W)
Time: 23:31:50
(UTC+02:00)

ISS - Pass Details

Date: 19 December 2023
Orbit: 411 x 425 km, 51.6° (Epoch: 18 June)

Event Time Altitude Azimuth Distance (km) Brightness Sun altitude
Exits shadow 06:54:00 19° 213° (SSW) 1,041 -1.9 -17.7°
Maximum altitude 06:56:02 45° 147° (SSE) 574 -2.8 -17.4°
Drops below altitude 10° 06:59:15 10° 73° (ENE) 1,498 -0.1 -16.9°
Sets 07:01:25 0° 68° (ENE) 2,371 0.9 -16.5°
